Tracking 25198 objects as of 16-Jan-2022
HD Live streaming from Space Station
objects crossing your sky now

THOR ABLESTAR DEB *

Track THOR ABLESTAR DEB * now!
10-day predictions


NORAD ID: 18651
Int'l Code: 1961-015LW
Perigee: 927.1 km
Apogee: 2,097.5 km
Inclination: 65.7 °
Period: 116.1 minutes
Semi major axis: 7883 km
RCS: 0.0068 m2 (small)
Launch date: June 29, 1961
Source: United States (US)
Launch site: AIR FORCE EASTERN TEST RANGE (AFETR)

Note: This is SATELLITE DEBRIS
aabbcc
Your satellite tracking list
Your tracking list is empty




NASA's NSSDC Master Catalog

Two Line Element Set (TLE):
1 18651U 61015LW  22015.87117588 -.00000041  00000-0  44780-4 0  9992
2 18651  65.6952 182.0895 0742275 156.9548 326.8859 12.40339308404208
Source of the keplerian elements: AFSPC